Location: Peebles
(55.6412°N, 3.1714°W)
Time: 17:46:59
(UTC+01:00)

Cosmos 1934 Rocket - Pass Details

Date: 29 January 2022
Orbit: 938 x 999 km, 83.0° (Epoch: 25 May)

Event Time Altitude Azimuth Distance (km) Brightness Sun altitude
Rises 18:36:56 0° 346° (NNW) 3,648 7.1 -16.1°
Reaches altitude 10° 18:39:30 10° 342° (NNW) 2,690 6.4 -16.5°
Maximum altitude 18:45:25 54° 268° (W) 1,143 4.7 -17.3°
Drops below altitude 10° 18:51:16 10° 193° (SSW) 2,650 6.5 -18.2°
Sets 18:53:47 0° 189° (S) 3,589 7.1 -18.5°
